User: anonymous   Login
Location: Icefog Observatory
(64.9000°N, 147.4000°W)
Time: 21:13:34
(UTC-08:00)
Language:

YUBILEINY - Orbit

View from above orbital plane
View from above orbital plane
View from above satellite
View from above satellite

Ground track
Ground track

The orbit data is extracted from the following two-line orbital elements,

1 32953U 08025A   24262.83132851  .00000022  00000-0  86472-4 0  9999
2 32953  82.5060  31.2259 0018685 259.3921 100.5054 12.43148251740766
Epoch (UTC): 18 September 2024 19:57:06
Eccentricity: 0.0018685
inclination: 82.5060°
perigee height: 1478 km
apogee height: 1508 km
right ascension of ascending node: 31.2259°
argument of perigee: 259.3921°
revolutions per day: 12.43148251
mean anomaly at epoch: 100.5054°
orbit number at epoch: 74076

The dashed part of the orbit path shows where the satellite is in the earth's shadow,  

DLR